Location: Dackenheim
(49.5215°N, 8.1854°E)
Time: 20:24:45
(UTC+00:00)

YUBILEINY - Visible Passes

Search period start: 16 March 2026 00:00
Search period end: 26 March 2026 00:00
Orbit: 1478 x 1509 km, 82.5° (Epoch: 16 March)

Date Brightness Start Highest point End Pass type
(mag) Time Alt. Az. Time Alt. Az. Time Alt. Az.
16 Mar ? 00:11:36 10° N 00:16:59 17° NE 00:22:20 10° E visible
16 Mar ? 02:07:17 10° N 02:15:58 63° ENE 02:24:33 10° SSE visible
16 Mar ? 04:04:41 10° NNW 04:12:17 35° W 04:19:49 10° SW visible
16 Mar ? 23:24:29 10° NNE 23:25:42 10° NE 23:26:55 10° NE visible
17 Mar ? 01:17:47 10° N 01:25:50 39° ENE 01:33:47 10° SE visible
17 Mar ? 03:14:34 10° NNW 03:23:04 59° W 03:31:30 10° SSW visible
17 Mar ? 18:22:37 10° W 18:27:52 17° NW 18:33:08 10° N visible
18 Mar ? 00:28:31 10° N 00:35:18 24° NE 00:42:01 10° ESE visible
18 Mar ? 02:24:44 10° N 02:33:31 87° E 02:42:05 11° S visible
18 Mar ? 04:22:44 10° NNW 04:29:13 24° WNW 04:35:39 10° SW visible
18 Mar ? 23:39:46 10° NNE 23:44:20 15° NE 23:48:53 10° ENE visible
19 Mar ? 01:35:06 10° N 01:43:38 54° ENE 01:50:57 15° SE visible
19 Mar ? 03:32:18 10° NNW 03:40:13 41° W 03:46:44 15° SSW visible
19 Mar ? 18:43:33 10° WNW 18:46:26 12° NW 18:49:19 10° NNW visible
20 Mar ? 00:45:39 10° N 00:53:24 34° ENE 01:00:30 12° ESE visible
20 Mar ? 02:42:17 10° NNW 02:50:54 68° W 02:56:19 26° S visible
20 Mar ? 04:41:18 10° NW 04:45:58 16° WNW 04:50:38 10° WSW visible
20 Mar ? 23:56:30 10° N 00:02:44 21° NE 00:08:56 10° E visible
21 Mar ? 01:52:30 10° N 02:01:16 76° ENE 02:06:11 30° SSE visible
21 Mar ? 03:50:14 10° NNW 03:57:14 28° W 04:02:01 17° WSW visible
21 Mar ? 23:08:06 10° NNE 23:11:38 13° NE 23:15:10 10° ENE visible
22 Mar ? 01:02:55 10° N 01:11:17 47° ENE 01:16:13 25° SE visible
22 Mar ? 02:59:56 10° NNW 03:08:09 48° W 03:12:04 30° SW visible
22 Mar ? 18:09:38 10° WNW 18:13:43 14° NW 18:17:47 10° NNW visible
23 Mar ? 00:13:33 10° N 00:20:55 29° ENE 00:26:22 16° ESE visible
23 Mar ? 02:10:01 10° NNW 02:18:44 79° W 02:22:13 42° S visible
23 Mar ? 04:08:31 10° NNW 04:14:04 19° WNW 04:18:04 14° WSW visible
23 Mar ? 23:24:32 10° N 23:30:08 18° NE 23:35:42 10° E visible
24 Mar ? 01:20:18 10° N 01:29:00 66° ENE 01:32:28 40° SE visible
24 Mar ? 03:17:46 10° NNW 03:25:13 33° W 03:28:20 26° WSW visible
24 Mar ? 22:36:53 10° NNE 22:38:54 11° NE 22:40:54 10° NE visible
25 Mar ? 00:30:46 10° N 00:38:54 41° ENE 00:42:47 28° ESE visible
25 Mar ? 02:27:37 10° NNW 02:36:02 56° W 02:38:39 43° SW visible
25 Mar ? 04:27:48 10° NW 04:30:44 12° WNW 04:33:39 10° W visible
25 Mar ? 23:41:29 10° N 23:48:25 25° ENE 23:53:10 16° E visible
